Terminal Aerodrome Forecast
Issued by NWS

Home | Current Version | Previous Version | Text Only | Print | Product List | Glossary On
Versions: 1 2 3 4 5 6 7 8 9 10 11 12 13 14 15 16 17 18 19 20 21 22 23 24 25
000
FTUS43 KMQT 231500 AAA
TAFCMX
TAF AMD
KCMX 231532Z 2316/2412 10007KT 2SM BR OVC008
      TEMPO 2316/2317 6SM BR SCT008 OVC035
     FM231700 09009KT P6SM OVC015
     FM231900 09007KT P6SM OVC025
     FM232200 10008KT P6SM BKN035
     FM240400 11006KT 3SM BR BKN004=

USA.gov is the U.S. government's official web portal to all federal, state and local government web resources and services.